[[{"header":{"parameterUnit":"m.s-1","parameterCategory":1,"la1":30.2991,"la2":30.254,"lo1":-89.0895,"lo2":-89.0444,"dy":0.0017,"dx":0.0017,"nx":28,"ny":28,"refTime":"2024-03-01T03:00:00:Z","depth":0,"parameterNumber":2,"parameterNumberName":"U-component_of_WINDS"},"data":[0,0,0,0,0,0,0,0,0,0,0,0,0,0,0,0,0,0,0,0,0,0,0,0,0,0,0,0,0,0,0,0,0,0,0,0,0,0,0,0,0,0,0,0,0,0,0,0,0,0,0,0,0,0,0,0,0,0,-0.3368,-0.3368,0,-0.3363,-0.3363,-0.3363,-0.3389,-0.339,-0.339,-0.3391,-0.3383,-0.3382,-0.3382,0,0,0,0,0,0,0,0,0,0,0,0,0,-0.3401,-0.34,-0.3368,-0.3368,-0.3368,-0.3363,-0.3363,-0.3363,-0.3389,-0.339,-0.3391,-0.3392,-0.3384,-0.3383,-0.3381,0,0,0,0,0,0,0,0,0,0,0,0,0,-0.339,-0.34,-0.3369,-0.3381,-0.3382,-0.3363,-0.3363,-0.3363,-0.3389,-0.339,-0.3391,-0.3392,-0.3384,-0.3383,-0.3381,-0.335,0,0,-0.3377,-0.3376,0,0,0,0,0,0,0,0,-0.3391,-0.3389,-0.3379,-0.338,-0.3381,-0.3378,-0.3371,-0.3358,-0.3388,-0.3386,-0.3391,-0.3393,-0.338,-0.3379,-0.3376,-0.3349,-0.3349,-0.3377,-0.3376,-0.3375,-0.3375,0,0,0,0,0,0,0,-0.3391,-0.3389,-0.3366,-0.3379,-0.338,-0.3386,-0.3386,-0.3369,-0.3377,-0.3386,-0.3388,-0.3387,-0.3381,-0.3377,-0.3376,-0.3349,-0.3377,-0.3376,-0.3375,-0.3374,-0.3296,-0.3295,0,0,0,0,0,0,-0.3391,-0.339,-0.3366,-0.3366,-0.3389,-0.3385,-0.3384,-0.3378,-0.3377,-0.3378,-0.3386,-0.3388,-0.3379,-0.3377,-0.3376,-0.3338,-0.3375,-0.3374,-0.3373,-0.3297,-0.3296,-0.3294,0,0,0,0,0,0,-0.3391,-0.3388,-0.3367,-0.3378,-0.3376,-0.3383,-0.3375,-0.3377,-0.3373,-0.3377,-0.3378,-0.3381,-0.338,-0.3378,-0.3356,-0.3338,-0.3374,-0.3372,-0.3299,-0.3297,-0.3295,-0.3263,0,0,0,0,0,0,-0.3392,-0.3388,-0.3377,-0.3378,-0.3375,-0.3347,-0.3374,-0.3376,-0.3371,-0.3373,-0.3372,-0.3373,-0.338,-0.3358,-0.3355,-0.3337,-0.3371,-0.33,-0.3298,-0.3296,-0.3266,-0.3261,-0.3256,0,0,0,0,0,-0.3393,-0.3368,-0.3376,-0.3373,-0.3361,-0.3346,-0.3345,-0.3354,-0.3369,-0.3357,-0.336,-0.3373,-0.3341,-0.3356,-0.3352,-0.3334,-0.3301,-0.3298,-0.3296,-0.3268,-0.3262,-0.3256,0,0,0,0,0,0,-0.3363,-0.3368,-0.3377,-0.3351,-0.3348,-0.3351,-0.3336,-0.3347,-0.334,-0.3342,-0.3354,-0.3354,-0.333,-0.333,-0.3346,-0.3303,-0.3324,-0.332,-0.3304,-0.3298,-0.3293,-0.3293,-0.337,0,0,0,0,0,-0.3354,-0.3342,-0.3347,-0.3324,-0.3322,-0.3329,-0.3323,-0.3331,-0.3328,-0.3327,-0.3328,-0.3324,-0.3313,-0.3305,-0.3296,-0.3266,-0.3266,-0.3252,-0.3247,-0.3243,-0.3239,-0.3224,-0.3217,-0.3285,-0.3285,-0.3285,0,0,-0.3334,-0.3335,-0.3327,-0.3318,-0.3316,-0.3303,-0.3328,-0.3313,-0.3303,-0.3324,-0.3304,-0.3305,-0.3301,-0.3276,-0.3264,-0.3275,-0.3221,-0.3239,-0.3236,-0.3235,-0.322,-0.3214,-0.3208,-0.3283,-0.3284,-0.3284,0,0,-0.3291,-0.3291,-0.3272,-0.327,-0.3268,-0.3273,-0.3268,-0.3269,-0.327,-0.3251,-0.3266,-0.3255,-0.3236,-0.3232,-0.3228,-0.3185,-0.3196,-0.3181,-0.3155,-0.3139,-0.3134,-0.3129,-0.3113,-0.3107,-0.3178,-0.3178,-0.3178,0,-0.3267,-0.3248,-0.326,-0.3244,-0.324,-0.3259,-0.3239,-0.3236,-0.3231,-0.3227,-0.3239,-0.3216,-0.3215,-0.3188,-0.3178,-0.3174,-0.3169,-0.3181,-0.3134,-0.3129,-0.3125,-0.311,-0.3104,-0.3176,-0.3176,-0.3176,-0.3176,0,-0.3218,-0.3205,-0.3189,-0.3184,-0.3178,-0.316,-0.3169,-0.3161,-0.3169,-0.3173,-0.3153,-0.3152,-0.3143,-0.3137,-0.3145,-0.3112,-0.3119,-0.3132,-0.3153,-0.3117,-0.3102,-0.3097,-0.3173,-0.3174,-0.3174,-0.3175,0,0,-0.3155,-0.3157,-0.3151,-0.3149,-0.3148,-0.3138,-0.3121,-0.3113,-0.3105,-0.3101,-0.3087,-0.3071,-0.3083,-0.3079,-0.3086,-0.3073,-0.3038,-0.3088,-0.3088,-0.3078,-0.3001,-0.299,-0.2983,-0.3046,-0.3045,-0.3044,-0.3001,0,-0.3113,-0.3084,-0.3095,-0.3065,-0.3053,-0.3072,-0.3057,-0.3054,-0.3058,-0.3048,-0.3051,-0.3039,-0.3057,-0.3054,-0.3042,-0.3045,-0.3022,-0.3048,-0.3032,-0.3031,-0.3032,-0.2976,-0.2965,-0.2924,-0.2996,-0.2995,-0.2994,0,-0.306,-0.3053,-0.3023,-0.3024,-0.302,-0.3006,-0.2999,-0.2989,-0.2987,-0.299,-0.2985,-0.2996,-0.2979,-0.3001,-0.2977,-0.2995,-0.2989,-0.2989,-0.2988,-0.2986,-0.301,-0.2972,-0.2911,-0.2905,-0.2986,-0.2986,-0.2987,0,-0.3016,-0.3001,-0.298,-0.2978,-0.2979,-0.2969,-0.2969,-0.2968,-0.2962,-0.2956,-0.2952,-0.2944,-0.2939,-0.2932,-0.294,-0.2955,-0.2915,-0.2937,-0.2917,-0.2917,-0.2907,-0.2907,-0.2844,-0.2904,-0.2904,-0.2905,-0.2905,0,-0.2967,-0.2948,-0.2961,-0.2948,-0.2927,-0.2939,-0.2917,-0.2919,-0.2918,-0.2906,-0.2921,-0.291,-0.2921,-0.2911,-0.2917,-0.2896,-0.2894,-0.2896,-0.2898,-0.2894,-0.2894,-0.289,-0.2893,-0.2903,-0.2903,-0.2904,-0.2904,0,-0.2915,-0.2923,-0.2902,-0.2905,-0.2906,-0.289,-0.2892,-0.288,-0.2885,-0.2869,-0.2866,-0.2873,-0.2861,-0.2869,-0.2857,-0.2861,-0.2834,-0.284,-0.2835,-0.2836,-0.2815,-0.2817,-0.2746,-0.2737,-0.2804,-0.2804,-0.2803,0,-0.2883,-0.2869,-0.287,-0.2864,-0.2863,-0.2851,-0.2846,-0.2857,-0.285,-0.2847,-0.2835,-0.2825,-0.2817,-0.2797,-0.2801,-0.2791,-0.2797,-0.2773,-0.2795,-0.2792,-0.2796,-0.2796,-0.2795,-0.2768,-0.2767,-0.2766,-0.2766,0,-0.2826,-0.283,-0.2822,-0.2814,-0.2807,-0.2802,-0.2797,-0.2791,-0.2802,-0.2794,-0.2782,-0.2776,-0.2764,-0.2753,-0.2746,-0.2745,-0.2757,-0.2759,-0.2754,-0.2749,-0.2747,-0.2747,-0.2822,-0.276,-0.2761,-0.2761,-0.2762,-0.2762,-0.2782,-0.277,-0.2769,-0.2759,-0.2757,-0.2753,-0.2742,-0.2746,-0.2736,-0.2727,-0.2735,-0.2721,-0.2719,-0.271,-0.2708,-0.2697,-0.2706,-0.2699,-0.2697,-0.2694,-0.2691,-0.2749,-0.2695,-0.2695,-0.2696,-0.2696,-0.2696,0,-0.2725,-0.2725,-0.2716,-0.271,-0.2702,-0.2714,-0.2711,-0.2703,-0.269,-0.2688,-0.268,-0.2666,-0.2656,-0.2659,-0.265,-0.264,-0.2645,-0.2637,-0.2638,-0.2637,-0.2683,-0.2689,-0.2633,-0.2633,-0.2633,-0.2633,-0.2633,-0.2633,-0.2694,-0.2674,-0.2679,-0.2658,-0.2659,-0.2645,-0.2642,-0.2638,-0.2636,-0.262,-0.2612,-0.2614,-0.2614,-0.2605,-0.2596,-0.2597,-0.2592,-0.2582,-0.2585,-0.2628,-0.2634,-0.264,-0.2645,-0.2581,-0.2581,-0.254,-0.254,-0.254]},{"header":{"parameterUnit":"m.s-1","parameterCategory":1,"la1":30.2991,"la2":30.254,"lo1":-89.0895,"lo2":-89.0444,"dy":0.0017,"dx":0.0017,"nx":28,"ny":28,"refTime":"2024-03-01T03:00:00:Z","depth":0,"parameterNumber":3,"parameterNumberName":"V-component_of_WINDS"},"data":[0,0,0,0,0,0,0,0,0,0,0,0,0,0,0,0,0,0,0,0,0,0,0,0,0,0,0,0,0,0,0,0,0,0,0,0,0,0,0,0,0,0,0,0,0,0,0,0,0,0,0,0,0,0,0,0,0,0,0.8492,0.8494,0,0.8713,0.8716,0.8719,0.8796,0.8795,0.8794,0.8794,0.9021,0.9028,0.9035,0,0,0,0,0,0,0,0,0,0,0,0,0,0.8138,0.8144,0.8492,0.8495,0.8497,0.8713,0.8716,0.8719,0.8796,0.8795,0.8794,0.8793,0.9019,0.9027,0.9035,0,0,0,0,0,0,0,0,0,0,0,0,0,0.8318,0.8146,0.8491,0.8562,0.857,0.8712,0.8716,0.872,0.8796,0.8795,0.8794,0.8793,0.9017,0.9026,0.9037,0.9125,0,0,0.9068,0.9072,0,0,0,0,0,0,0,0,0.8308,0.8331,0.8549,0.8557,0.8567,0.8726,0.8675,0.8856,0.8797,0.8711,0.8794,0.8792,0.8924,0.8942,0.8986,0.9136,0.9145,0.9069,0.9075,0.908,0.9082,0,0,0,0,0,0,0,0.8295,0.8322,0.858,0.8552,0.8563,0.8583,0.8607,0.8709,0.8822,0.8718,0.8724,0.8749,0.8929,0.8976,0.8992,0.9149,0.9069,0.9078,0.9084,0.9088,0.9383,0.9385,0,0,0,0,0,0,0.8271,0.8311,0.8573,0.8586,0.8432,0.859,0.8618,0.8676,0.8821,0.8842,0.875,0.8752,0.8959,0.898,0.9,0.9114,0.9079,0.9089,0.9095,0.9382,0.9384,0.9386,0,0,0,0,0,0,0.8263,0.8293,0.8564,0.8451,0.8487,0.8598,0.8663,0.8681,0.8729,0.8845,0.8866,0.8778,0.8959,0.8986,0.9094,0.9123,0.9094,0.9103,0.938,0.9382,0.9385,0.9342,0,0,0,0,0,0,0.8252,0.829,0.8324,0.8451,0.8492,0.8652,0.8665,0.8686,0.8746,0.8751,0.8876,0.8896,0.896,0.9078,0.9104,0.9137,0.9111,0.9378,0.9381,0.9384,0.9341,0.9343,0.9344,0,0,0,0,0,0.824,0.8303,0.8326,0.8357,0.8537,0.8654,0.8678,0.875,0.8748,0.8784,0.8859,0.8892,0.9116,0.9088,0.9118,0.9155,0.9376,0.938,0.9384,0.9341,0.9342,0.9344,0,0,0,0,0,0,0.8178,0.8321,0.8347,0.8454,0.8541,0.8667,0.8714,0.8749,0.8839,0.884,0.8926,0.8954,0.9055,0.9116,0.9083,0.9249,0.9248,0.9258,0.9205,0.9208,0.9209,0.9192,0.912,0,0,0,0,0,0.8176,0.8259,0.838,0.8462,0.8505,0.8601,0.8655,0.8703,0.8797,0.8834,0.8918,0.9008,0.9099,0.9157,0.9247,0.9351,0.938,0.9391,0.9392,0.9392,0.94,0.9461,0.9467,0.9398,0.9398,0.9398,0,0,0.8174,0.8263,0.831,0.8452,0.8525,0.8609,0.8632,0.872,0.8783,0.8848,0.8955,0.9019,0.9125,0.9232,0.9283,0.9286,0.9426,0.9397,0.9397,0.9404,0.9465,0.9472,0.9477,0.9401,0.94,0.94,0,0,0.8214,0.8289,0.8366,0.844,0.855,0.8614,0.8633,0.8754,0.8799,0.8907,0.8958,0.9035,0.9189,0.9264,0.9321,0.939,0.9425,0.9417,0.9424,0.9482,0.9488,0.9493,0.9518,0.9526,0.9424,0.9424,0.9424,0,0.8198,0.8326,0.8402,0.8487,0.8549,0.8611,0.8691,0.8758,0.8892,0.8934,0.8935,0.9131,0.9207,0.9332,0.9349,0.9393,0.9418,0.9403,0.9481,0.9487,0.9493,0.9518,0.9527,0.9423,0.9423,0.9423,0.9423,0,0.8301,0.8389,0.8438,0.8566,0.8634,0.8715,0.8804,0.8863,0.8906,0.897,0.908,0.9174,0.9285,0.9318,0.936,0.945,0.9448,0.9464,0.9465,0.9497,0.9522,0.9532,0.942,0.9421,0.9421,0.9422,0,0,0.8307,0.8477,0.8494,0.8553,0.868,0.875,0.8835,0.8943,0.8992,0.9083,0.9157,0.9287,0.9303,0.9369,0.942,0.9471,0.9521,0.9481,0.9485,0.9486,0.9626,0.9613,0.9622,0.9544,0.9546,0.9548,0.9617,0,0.8364,0.8518,0.8589,0.8712,0.8795,0.8856,0.8931,0.9017,0.908,0.916,0.923,0.932,0.9334,0.9374,0.9427,0.9503,0.955,0.9499,0.9615,0.9618,0.9586,0.9636,0.9622,0.9683,0.9627,0.9629,0.963,0,0.845,0.8541,0.8672,0.879,0.8828,0.8893,0.8998,0.9074,0.9174,0.9216,0.9289,0.9339,0.9432,0.9427,0.9556,0.952,0.9572,0.9616,0.962,0.9634,0.9625,0.9651,0.9704,0.9713,0.9646,0.9645,0.9644,0,0.8441,0.8597,0.8695,0.8744,0.8885,0.8929,0.899,0.9089,0.9149,0.9242,0.9282,0.9384,0.944,0.9518,0.9594,0.9583,0.9717,0.9717,0.9755,0.9753,0.978,0.9777,0.9842,0.9813,0.9812,0.9812,0.9812,0,0.8497,0.8575,0.8694,0.8754,0.8844,0.8926,0.9012,0.9077,0.9165,0.924,0.93,0.9369,0.9465,0.9547,0.9608,0.9706,0.9731,0.9768,0.9783,0.9763,0.9758,0.9798,0.9796,0.9815,0.9814,0.9814,0.9813,0,0.8502,0.8585,0.8697,0.8821,0.8854,0.8915,0.9021,0.9083,0.9149,0.9243,0.927,0.9374,0.9473,0.9557,0.9688,0.9729,0.9831,0.9849,0.9797,0.9805,0.9838,0.9834,0.9931,0.9948,0.9906,0.9906,0.9907,0,0.8532,0.8594,0.8725,0.8779,0.8839,0.8926,0.8988,0.9072,0.9134,0.9253,0.9301,0.9405,0.9492,0.9648,0.9736,0.9837,0.9858,0.9885,0.9873,0.9851,0.9859,0.9854,0.9861,0.9885,0.9885,0.9885,0.9885,0,0.8577,0.8615,0.8702,0.8805,0.8878,0.8962,0.9048,0.909,0.9189,0.9257,0.9359,0.9427,0.9561,0.9664,0.9774,0.9837,0.9878,0.9888,0.9902,0.9882,0.985,0.9869,0.98,0.9886,0.9885,0.9885,0.9885,0.9885,0.8596,0.8654,0.8755,0.8851,0.8925,0.9004,0.9069,0.9143,0.923,0.9345,0.9389,0.9494,0.9594,0.9746,0.981,0.9894,0.99,0.992,0.9925,0.9929,0.9926,0.9836,0.9915,0.9915,0.9915,0.9915,0.9915,0,0.8644,0.8713,0.88,0.8919,0.8995,0.9026,0.9124,0.9185,0.9277,0.9366,0.9451,0.9569,0.967,0.9765,0.987,0.9919,0.9941,0.9944,0.9941,0.9956,0.9915,0.9892,0.9925,0.9925,0.9925,0.9925,0.9925,0.9925,0.8678,0.8778,0.8828,0.8966,0.9034,0.9137,0.919,0.9264,0.9336,0.9466,0.9549,0.9611,0.9703,0.9816,0.9909,0.9935,0.9971,0.997,1.0,0.996,0.9958,0.9956,0.9936,0.9977,0.9977,1.0035,1.0035,1.0035]}]]